www.pogodaiklimat.ru

Погода и климат >> Архив погоды >> Венгрия >> Шармеллек


ПОГОДА в Шармеллеке

  • Прогноз погоды в Шармеллеке
  • Монитор погоды в Шармеллеке

АРХИВ ПОГОДЫ в Шармеллеке

Время (UTC), дата Ветер
(напр.,м/с)
 
Видим.   Явления Облачность Т
(С)
Тd
(С)
f
(%)
Тe
(С)
Тes
(С)
Комфортность P
(гПа)
Po
(гПа)
Тmin
(С)
Tmax
(С)
R
(мм)
R24
(мм)
S
(см)
16 18.08 ЮЗ 3 н/о н/о +28.9 +18.4 53 +34 +34 очень
душно
1013.5 999.8
17 18.08 Ю 3 н/о н/о +27.4 +17.9 56 +32 +32 очень
душно
1013.4 999.6
18 18.08 Ю 2 н/о н/о +24.1 +17.8 68 +28 +28 душно 1013.3 999.3 +29.3
19 18.08 Ю 2 н/о н/о +22.4 +17.5 74 +27 +27 душно 1013.5 999.5
20 18.08 Ю 3 н/о н/о +21.0 +17.2 79 +25 +25 комфорт 1013.8 999.7
21 18.08 Ю 2 н/о н/о +20.4 +17.8 85 +24 +24 комфорт 1013.8 999.7
22 18.08 Ю 2 н/о н/о +20.1 +17.9 87 +24 +24 комфорт 1014.0 999.8
23 18.08 ЮВ 2 н/о н/о +19.9 +18.2 90 +23 +23 комфорт 1014.1 999.9
00 19.08 ЮВ 2 н/о н/о +19.0 +17.7 92 +21 +21 комфорт 1013.8 999.6
01 19.08 ЮВ 2 н/о н/о +18.6 +17.4 93 +20 +20 1013.8 999.6
02 19.08 штиль 0 н/о н/о +17.1 +16.8 98 +17 +17 1014.0 999.7
03 19.08 ЮВ 1 н/о н/о +17.6 +16.5 93 +19 +19 1014.0 999.7
04 19.08 Ю 2 н/о н/о +17.1 +16.1 94 +17 +17 1014.0 999.7
05 19.08 Ю 2 н/о н/о +17.8 +17.0 95 +18 +18 1014.5 1000.2
06 19.08 Ю 2 н/о н/о +20.6 +18.0 85 +25 +25 комфорт 1015.0 1000.9 +16.8
07 19.08 Ю 2 н/о н/о +22.3 +18.5 79 +28 +28 душно 1015.1 1001.0
08 19.08 В 1 н/о н/о +24.5 +19.1 72 +29 +29 душно 1015.5 1001.5
09 19.08 З 1 н/о н/о +26.5 +18.1 60 +31 +31 душно 1015.9 1002.0
10 19.08 СЗ 1 н/о н/о +27.5 +18.8 59 +33 +33 очень
душно
1015.8 1002.0
11 19.08 Ю 2 н/о н/о +28.0 +18.4 56 +33 +33 очень
душно
1015.6 1001.8
12 19.08 Ю 1 н/о н/о +29.3 +18.7 53 +34 +34 очень
душно
1015.7 1002.0
13 19.08 ЮЗ 1 н/о н/о +29.8 +18.9 52 +35 +35 очень
душно
1015.9 1002.2
14 19.08 ЮВ 2 н/о н/о +29.7 +18.8 52 +35 +35 очень
душно
1015.6 1001.9
15 19.08 Ю 2 н/о н/о +29.6 +18.7 52 +35 +35 очень
душно
1015.4 1001.7
16 19.08 Ю 1 н/о н/о +29.6 +19.3 54 +35 +35 очень
душно
1015.3 1001.6
17 19.08 штиль 0 н/о н/о +29.4 +19.1 54 +35 +35 очень
душно
1015.2 1001.5
18 19.08 штиль 0 н/о н/о +25.3 +20.1 73 +31 +31 очень
душно
1015.4 1001.5 +30.1
19 19.08 штиль 0 н/о н/о +23.4 +20.0 81 +30 +30 очень
душно
1016.0 1002.0
20 19.08 штиль 0 н/о н/о +22.0 +20.3 90 +28 +28 душно 1016.7 1002.6
21 19.08 СЗ 1 н/о н/о +20.7 +19.4 92 +26 +26 душно 1017.2 1003.0
22 19.08 СЗ 2 н/о н/о +20.1 +18.9 93 +24 +24 комфорт 1017.3 1003.1
23 19.08 СЗ 2 н/о н/о +19.8 +18.6 93 +23 +23 комфорт 1017.7 1003.5
00 20.08 СЗ 3 н/о н/о +19.3 +18.3 94 +22 +22 комфорт 1017.6 1003.4
01 20.08 СЗ 2 н/о н/о +19.6 +17.9 90 +23 +23 комфорт 1017.4 1003.2
02 20.08 СЗ 3 н/о н/о +19.3 +17.8 91 +22 +22 комфорт 1017.6 1003.4
03 20.08 СЗ 2 н/о н/о +18.6 +17.1 91 +20 +20 1018.1 1003.8
04 20.08 СЗ 2 н/о н/о +18.1 +17.0 93 +19 +19 1018.2 1003.9
05 20.08 СЗ 3 н/о н/о +18.4 +17.1 92 +19 +19 1018.3 1004.0
06 20.08 СЗ 3 н/о н/о +21.4 +18.4 83 +26 +26 душно 1018.7 1004.5 +18.1
07 20.08 С 3 н/о н/о +23.5 +19.0 76 +28 +28 душно 1018.7 1004.6
08 20.08 СЗ 2 н/о н/о +24.8 +19.0 70 +30 +30 душно 1018.6 1004.6
09 20.08 З 2 н/о н/о +27.0 +20.1 66 +33 +33 очень
душно
1018.6 1004.7
10 20.08 СЗ 1 н/о н/о +28.1 +20.1 62 +34 +34 очень
душно
1018.6 1004.8
11 20.08 З 1 н/о н/о +29.4 +19.7 56 +35 +35 очень
душно
1018.3 1004.5
12 20.08 Ю 2 н/о н/о +30.8 +20.1 53 +37 +37 очень
душно
1017.8 1004.1
13 20.08 ЮЗ 1 н/о н/о +31.3 +19.0 48 +37 +37 очень
душно
1017.6 1003.9
14 20.08 ЮЗ 2 н/о н/о +31.7 +18.0 44 +36 +36 очень
душно
1017.3 1003.6
15 20.08 ЮЗ 2 н/о н/о +31.7 +19.0 47 +37 +37 очень
душно
1017.1 1003.4
16 20.08 В 1 н/о н/о +31.1 +20.4 53 +38 +38 очень
душно
1016.8 1003.1
17 20.08 В 1 н/о н/о +30.2 +21.0 58 +38 +38 очень
душно
1016.4 1002.7
18 20.08 В 1 н/о н/о +27.0 +21.1 70 +34 +34 очень
душно
1016.7 1002.8 +32.0
19 20.08 штиль 0 н/о н/о +25.3 +21.4 79 +32 +32 очень
душно
1016.9 1003.0
20 20.08 штиль 0 н/о н/о +23.8 +21.1 85 +30 +30 очень
душно
1017.0 1003.0
21 20.08 штиль 0 н/о н/о +22.3 +21.1 93 +29 +29 очень
душно
1017.0 1002.9
22 20.08 СЗ 1 н/о н/о +21.1 +20.3 95 +26 +26 душно 1017.1 1003.0
23 20.08 штиль 0 н/о н/о +20.6 +20.1 97 +25 +25 комфорт 1017.0 1002.8
00 21.08 штиль 0 н/о н/о +20.2 +19.5 96 +24 +24 комфорт 1017.0 1002.8
01 21.08 штиль 0 н/о н/о +19.8 +19.3 97 +23 +23 комфорт 1017.1 1002.9
02 21.08 СЗ 4 н/о н/о +19.2 +18.9 98 +21 +21 комфорт 1017.5 1003.3
03 21.08 С 7
{13}
н/о н/о +22.1 +17.7 76 +27 +27 душно 1018.6 1004.5
04 21.08 С 10 н/о н/о +21.6 +17.0 75 +26 +26 душно 1019.2 1005.0
05 21.08 С 9 н/о н/о +20.4 +15.0 71 +22 +22 комфорт 1020.4 1006.2
06 21.08 С 11
{17}
н/о н/о +19.8 +14.2 70 +21 +21 комфорт 1021.7 1007.4 +18.7
07 21.08 С 10 н/о н/о +20.4 +14.1 67 +22 +22 комфорт 1022.1 1007.8
08 21.08 С 10 н/о н/о +20.9 +14.1 65 +23 +23 комфорт 1022.5 1008.3
09 21.08 С 10
{17}
н/о н/о +22.3 +14.4 61 +26 +26 жарко 1023.0 1008.8
10 21.08 С 9 н/о н/о +22.4 +14.0 59 +26 +26 жарко 1023.3 1009.1
11 21.08 С 9 н/о н/о +22.7 +14.8 61 +26 +26 жарко 1023.3 1009.1
12 21.08
{17}
н/о н/о +23.9 +14.6 56 1022.9 1008.8
13 21.08 С 8 н/о н/о +24.0 +14.7 56 +27 +27 жарко 1022.9 1008.8
14 21.08 С 9 н/о н/о +23.2 +14.8 59 +27 +27 душно 1023.0 1008.9
15 21.08
{16}
н/о н/о +20.9 +13.6 63 1023.5 1009.3
16 21.08 С 8 н/о н/о +21.7 +14.1 62 +25 +25 комфорт 1023.6 1009.4
17 21.08 С 7 н/о н/о +20.1 +13.3 65 +22 +22 комфорт 1023.7 1009.4
18 21.08 С 8
{12}
н/о н/о +19.3 +13.5 69 +20 +20 1023.8 1009.5 +24.1
19 21.08 С 8 н/о н/о +19.1 +13.3 69 +20 +20 1023.9 1009.6
20 21.08 С 6 н/о н/о +19.3 +13.3 68 +20 +20 1024.1 1009.8
21 21.08 СЗ 4
{11}
н/о н/о +17.9 +13.6 76 +18 +18 1024.5 1010.1
22 21.08 СЗ 5 н/о н/о +17.8 +13.3 75 +17 +17 1024.5 1010.1
23 21.08 СЗ 4 н/о н/о +17.4 +13.1 76 +17 +17 1024.8 1010.4
00 22.08 С 4
{8}
н/о н/о +16.4 +13.1 81 +16 +16 1024.8 1010.3
01 22.08 С 4 н/о н/о +16.9 +13.2 79 +16 +16 1024.6 1010.1
02 22.08 СЗ 4 н/о н/о +16.6 +13.1 80 +16 +16 1024.6 1010.1
03 22.08 С 4
{7}
н/о н/о +16.5 +13.0 80 +16 +16 1024.4 1009.9
04 22.08 С 4 н/о н/о +15.9 +13.2 84 +15 +15 1024.4 1009.9
05 22.08 С 4 н/о н/о +15.7 +13.5 87 +15 +15 1024.5 1010.0
06 22.08 С 4
{7}
н/о н/о +17.1 +13.8 81 +17 +17 1024.9 1010.4 +15.3
07 22.08 С 4 н/о н/о +18.2 +13.7 75 +18 +18 1024.7 1010.3
08 22.08 С 3 н/о н/о +19.8 +14.4 71 +22 +22 комфорт 1024.4 1010.1
09 22.08 З 2 н/о н/о +22.1 +15.2 65 +26 +26 душно 1024.4 1010.2
10 22.08 С 2 н/о н/о +22.8 +16.1 66 +27 +27 душно 1024.1 1009.9
11 22.08 СЗ 2 н/о н/о +23.5 +16.3 64 +27 +27 душно 1023.6 1009.5
12 22.08 СЗ 4 н/о н/о +24.5 +17.2 64 +28 +28 душно 1023.2 1009.1
13 22.08 СЗ 3 н/о н/о +24.9 +17.1 62 +29 +29 душно 1023.0 1008.9
14 22.08 С 4 н/о н/о +25.1 +17.3 62 +29 +29 душно 1022.5 1008.5
15 22.08 С 6
{7}
н/о н/о +23.6 +16.9 66 +27 +27 жарко 1022.6 1008.5
16 22.08 С 4 н/о н/о +23.4 +16.5 65 +28 +28 душно 1022.5 1008.4
17 22.08 С 3 н/о н/о +22.9 +17.1 70 +28 +28 душно 1022.2 1008.1
18 22.08 С 4 н/о н/о +20.9 +16.7 77 +25 +25 комфорт 1022.3 1008.1 +25.6
19 22.08 СЗ 3 н/о н/о +20.7 +16.9 79 +25 +25 комфорт 1022.8 1008.6
20 22.08 СЗ 3 н/о н/о +20.4 +16.8 80 +24 +24 комфорт 1023.6 1009.3
21 22.08 С 4 н/о н/о +19.9 +16.7 82 +23 +23 комфорт 1023.7 1009.4
22 22.08 С 4 н/о н/о +19.8 +16.6 82 +22 +22 комфорт 1023.7 1009.4
23 22.08 С 4 н/о н/о +19.7 +16.5 82 +22 +22 комфорт 1023.7 1009.4
00 23.08 С 2 н/о н/о +20.2 +16.2 78 +24 +24 комфорт 1023.6 1009.3
01 23.08 СЗ 4 н/о н/о +19.6 +16.8 84 +22 +22 комфорт 1023.6 1009.3
02 23.08 СЗ 3 н/о н/о +19.5 +16.9 85 +22 +22 комфорт 1023.6 1009.3
03 23.08 С 3 н/о н/о +18.2 +16.7 91 +19 +19 1023.5 1009.1
04 23.08 С 3 н/о н/о +17.9 +16.8 93 +18 +18 1023.6 1009.2
05 23.08 С 3 н/о н/о +17.9 +16.9 94 +18 +18 1023.9 1009.5
06 23.08 С 3 н/о н/о +19.7 +17.7 88 +23 +23 комфорт 1024.0 1009.7 +17.7
07 23.08 СЗ 3 н/о н/о +20.8 +18.2 85 +25 +25 комфорт 1024.3 1010.0
08 23.08 С 4 н/о н/о +22.8 +18.8 78 +29 +29 очень
душно
1024.5 1010.3
09 23.08 СВ 2 н/о н/о +25.0 +18.4 67 +30 +30 душно 1024.3 1010.2
10 23.08 В 3 н/о н/о +25.9 +17.0 58 +30 +30 душно 1024.0 1010.0
11 23.08 В 2 н/о н/о +26.9 +18.5 60 +32 +32 очень
душно
1023.6 1009.6
12 23.08 СВ 2 н/о н/о +27.6 +19.1 60 +33 +33 очень
душно
1022.9 1009.0
13 23.08 СВ 2 н/о н/о +28.4 +18.8 56 +34 +34 очень
душно
1022.7 1008.8
14 23.08 В 2 н/о н/о +28.0 +18.4 56 +33 +33 очень
душно
1022.3 1008.4
15 23.08 С 3 н/о н/о +27.6 +20.4 65 +34 +34 очень
душно
1021.8 1007.9
16 23.08 С 3 н/о н/о +27.4 +20.0 64 +34 +34 очень
душно
1021.6 1007.7
17 23.08 С 2 н/о н/о +26.6 +19.5 65 +32 +32 очень
душно
1021.2 1007.3
18 23.08 С 2 н/о н/о +25.1 +19.0 69 +30 +30 душно 1021.3 1007.3 +29.0
19 23.08 СЗ 2 н/о н/о +23.3 +19.7 80 +30 +30 очень
душно
1021.9 1007.8
20 23.08 СЗ 2 н/о н/о +22.1 +19.3 84 +28 +28 душно 1022.2 1008.0
21 23.08 СЗ 3 н/о н/о +21.7 +19.1 85 +27 +27 душно 1021.9 1007.7
22 23.08 СЗ 2 н/о н/о +20.8 +18.9 89 +26 +26 душно 1021.6 1007.4
23 23.08 СЗ 2 н/о н/о +20.5 +18.8 90 +25 +25 комфорт 1021.5 1007.3
00 24.08 СЗ 2 н/о н/о +20.1 +18.8 92 +24 +24 комфорт 1021.4 1007.1
01 24.08 СЗ 2 н/о н/о +19.8 +18.5 92 +23 +23 комфорт 1021.4 1007.1
02 24.08 СЗ 2 н/о н/о +19.8 +18.5 92 +23 +23 комфорт 1021.4 1007.1
03 24.08 СЗ 2 н/о н/о +18.9 +18.1 95 +21 +21 комфорт 1021.3 1007.0
04 24.08 СЗ 2 н/о н/о +19.0 +18.2 95 +21 +21 комфорт 1021.3 1007.0
05 24.08 СЗ 1 н/о н/о +19.3 +18.3 94 +23 +23 комфорт 1021.4 1007.1
06 24.08 В 2 н/о н/о +22.7 +19.1 80 +29 +29 очень
душно
1021.2 1007.1 +18.8
07 24.08 В 3 н/о н/о +23.8 +19.3 76 +29 +29 душно 1021.1 1007.0
08 24.08 В 4 н/о н/о +24.2 +18.4 70 +29 +29 душно 1021.3 1007.2
09 24.08 В 3
{7}
н/о н/о +25.5 +19.4 69 +31 +31 очень
душно
1020.9 1006.9
10 24.08 В 3 н/о н/о +25.9 +19.5 68 +31 +31 очень
душно
1020.8 1006.8
11 24.08 В 3 н/о н/о +27.2 +19.8 64 +33 +33 очень
душно
1020.3 1006.4
12 24.08 В 4 н/о н/о +28.7 +17.3 50 +33 +33 очень
душно
1019.7 1005.9
13 24.08 В 4 н/о н/о +28.5 +19.4 58 +34 +34 очень
душно
1019.4 1005.6
14 24.08 В 3 н/о н/о +28.6 +20.1 60 +35 +35 очень
душно
1018.9 1005.1
15 24.08 В 2 н/о н/о +28.6 +19.8 59 +35 +35 очень
душно
1018.4 1004.6
16 24.08 В 2 н/о н/о +28.3 +20.6 63 +35 +35 очень
душно
1018.3 1004.5
17 24.08 В 2 н/о н/о +27.2 +20.1 65 +33 +33 очень
душно
1018.2 1004.3
18 24.08 СВ 1 н/о н/о +25.6 +17.5 61 +30 +30 душно 1017.9 1004.0 +29.0
19 24.08 З 1 н/о н/о +24.0 +19.1 74 +29 +29 душно 1018.6 1004.6
20 24.08 С 3 н/о н/о +23.9 +19.2 75 +29 +29 душно 1018.9 1004.9
21 24.08 С 4
{7}
н/о н/о +22.5 +17.6 74 +28 +28 душно 1018.8 1004.7
22 24.08 СЗ 4 н/о н/о +22.0 +17.8 77 +27 +27 душно 1019.2 1005.1
23 24.08 СЗ 4 н/о н/о +20.9 +17.9 83 +25 +25 комфорт 1019.9 1005.7
00 25.08 СЗ 4
{7}
н/о н/о +19.8 +17.4 86 +22 +22 комфорт 1019.3 1005.1
01 25.08 С 3 н/о н/о +19.0 +17.3 90 +21 +21 комфорт 1019.3 1005.0
02 25.08 С 4 н/о н/о +19.6 +16.8 84 +22 +22 комфорт 1018.5 1004.3
03 25.08 н/о н/о +19.6 +17.4 87 1019.3 1005.0
04 25.08 СЗ 2 н/о н/о +18.3 +17.3 94 +19 +19 1019.2 1004.9
05 25.08 С 5 н/о н/о +18.4 +17.4 94 +19 +19 1019.3 1005.0
06 25.08 С 4
{7}
н/о н/о +19.8 +18.3 91 +23 +23 комфорт 1019.1 1004.9 +18.1
07 25.08 СЗ 4 н/о н/о +20.9 +18.8 88 +25 +25 комфорт 1019.4 1005.2
08 25.08 СВ 1 н/о н/о +23.1 +19.1 78 +29 +29 очень
душно
1020.3 1006.2
09 25.08 СВ 2 н/о н/о +23.9 +19.2 75 +29 +29 душно 1020.1 1006.0
10 25.08 СВ 1 н/о н/о +24.6 +19.4 73 +30 +30 очень
душно
1020.0 1006.0
11 25.08 В 2 н/о н/о +25.7 +19.8 70 +31 +31 очень
душно
1019.7 1005.7
12 25.08 В 4 н/о н/о +26.5 +20.4 69 +33 +33 очень
душно
1019.4 1005.5
13 25.08 В 4 н/о н/о +26.6 +20.4 69 +33 +33 очень
душно
1019.1 1005.2
14 25.08 СВ 3 н/о н/о +26.9 +19.5 64 +33 +33 очень
душно
1018.5 1004.6
15 25.08 СВ 2 н/о н/о +27.4 +19.7 63 +33 +33 очень
душно
1018.1 1004.2
16 25.08 В 2 н/о н/о +27.1 +18.7 60 +32 +32 очень
душно
1018.1 1004.2
17 25.08 СВ 2 н/о н/о +25.2 +19.8 72 +31 +31 очень
душно
1018.4 1004.4

 

Местоположение метеостанции Шармеллек (Венгрия): широта 46.68 долгота 17.17 высота над уровнем моря 125 м.

В архиве по умолчанию представлена погода в Шармеллеке за последнюю неделю. Архивные данные за месяц целиком и за предыдущие месяцы, начиная с января 2011 года, Вы можете получить, выбрав интересующий диапазон дат из раскрывающегося списка и нажав кнопку "Ввод!".


*Определитесь, кто Вы:
робот инопланетянин человек

Внимание! Время в таблицах - всемирное. Для получения местного времени необходимо прибавить поправку, которая равна 1 ч.

Смотрите также архив погоды в соседних городах и на ближайших метеорологических станциях:

Погода в Надьканиже (Венгрия) (30 км)
Погода в Залаэгерсеге (Венгрия) (35 км)
Погода в Капошваре (Венгрия) (61 км)
Погода в Веспреме (Венгрия) (66 км)
Погода в Сентготтхарде (Венгрия) (70 км)
Погода в Шиофоке (Венгрия) (72 км)
Погода в Вараздине (Хорватия) (74 км)
Погода в Мурска-Соботе (Словения) (76 км)
Погода в Сомбатхее (Венгрия) (77 км)
Погода на Базе ВВС Папа (Венгрия) (80 км)

Пояснения к столбцам:

Ветер - указаны скорость ветра в м/с - средняя за 10 мин, порывы в срок и между сроками (в фигурных скобках) и направление, откуда дует ветер: С - северный, СВ - северо-восточный, В - восточный, ЮВ - юго-восточный, Ю - южный, ЮЗ - юго-западный, З - западный, СЗ - северо-западный.
Видимость - горизонтальная дальность видимости в метрах или километрах. При видимости от 1 до 10 км при отсутствии осадков обычно наблюдается дымка, при ухудшении видимости до 1 км и менее - туман. В сухую погоду видимость может ухудшаться дымом, пылью или мглою.
Явления - указаны атмосферные явления, наблюдавшиеся в срок или в последний час перед сроком; фигурными скобками обозначены явления, наблюдавшиеся между сроками (за 1-3 часа до срока); квадратными скобками обозначены град или гололедные отложения с указанием их диаметра в мм.
Облачность - указаны через наклонную черту общая и нижняя облачность в баллах и высота нижней границы облаков в метрах; квадратными скобками обозначены формы облаков: Ci - перистые, Cs - перисто-слоистые, Cc - перисто-кучевые, Ac - высококучевые, As - высокослоистые, Sc - слоисто-кучевые, Ns - слоисто-дождевые, Cu - кучевые, Cb - кучево-дождевые. Подробнее классификацию облаков см. в Атласе облаков (PDF).
T - Температура воздуха - температура, измеренная на высоте 2 м над землей.
Td - Температура точки росы - температура, при понижении до которой содержащийся в воздухе водяной пар достигнет насыщения.
f - Относительная влажность воздуха - влажноcть воздуха, измеренная на высоте 2 м над землей.
Te - Эффективная температура - температура, которую ощущает одетый по сезону человек в тени. Характеристика душности погоды. При расчете учитывается влияние влажности воздуха и скорости ветра на теплоощущения человека.
Tes - Эффективная температура на солнце - температура, которую ощущает человек, с поправкой на солнечный нагрев. Характеристика знойности погоды. Зависит от высоты солнца над горизонтом, облачности и скорости ветра. Ночью, в пасмурную погоду, а также при ветре 12 м/с и более поправка равна нулю.
P - Атмосферное давление - приведенное к уровню моря атмосферное давление.
Po - Атмосферное давление - измеренное на уровне метеостанции атмосферное давление.
Tmin - Минимальная температура - минимум температуры воздуха на высоте 2 м над землей.
Tmax - Максимальная температура - максимум температуры воздуха на высоте 2 м над землей.
R - Количество осадков - Количество выпавших осадков за период времени, мм. При наведении курсора мыши на число - период времени, за который выпало указанное количество осадков.
R24 - Количество осадков - Количество выпавших осадков за 24 часа, мм.
S - Снежный покров - Высота снежного покрова, см. При наведении курсора мыши на число - состояние снежного покрова и степень покрытия местности в баллах.